Wind_Speed
17 17 17 19 19 19 19 18 19 19 20 20 19 18 17 16 15 15 15 15 15 14 14 13 13 12 11 11 11 11 10 9 8 8 8 8 9 8 8 8 7 7 6 6
16 17 18 18 19 19 19 19 19 20 21 21 20 19 18 17 16 16 16 16 16 16 16 15 14 13 13 13 13 12 10 10 10 10 10 10 10 10 10 10 9 8 7 7
15 17 17 18 18 18 18 19 19 20 21 21 21 20 20 19 18 17 17 17 17 17 16 16 15 14 14 14 15 14 12 12 12 13 12 12 12 12 11 12 12 11 9 8
16 17 17 17 18 17 18 18 19 20 20 20 20 18 20 19 19 18 17 17 18 17 17 16 16 15 15 15 15 15 15 14 13 13 13 13 13 13 13 13 13 13 11 10
18 18 17 17 17 18 19 19 19 20 20 19 20 18 19 20 19 19 18 18 18 17 17 17 17 17 17 17 16 16 16 15 14 14 13 14 14 15 15 14 14 14 13 12
19 18 18 18 18 18 19 19 19 19 18 19 20 19 19 20 19 19 19 19 18 18 18 18 19 19 19 18 18 18 17 16 15 15 15 16 16 16 16 16 15 14 14 14
18 18 19 18 18 19 19 17 17 16 17 18 20 20 21 21 20 19 19 19 19 20 20 20 19 20 19 19 19 19 18 17 17 17 17 17 17 17 17 16 17 17 16 15
18 19 20 19 19 19 19 18 17 17 17 17 20 20 20 21 20 20 20 20 21 21 21 21 21 21 20 20 20 20 20 19 19 19 18 18 19 18 18 17 17 18 18 17
19 20 20 20 20 20 20 19 18 18 18 18 19 21 21 21 21 21 21 21 22 22 21 21 22 22 22 22 22 21 22 21 21 21 20 20 20 20 19 18 18 19 19 18
20 20 21 21 21 21 21 20 20 18 19 19 19 20 21 22 22 22 22 22 22 22 23 23 24 24 24 25 25 24 23 23 23 23 22 22 21 21 21 21 21 21 21 20
19 20 21 21 21 21 21 21 21 21 20 19 18 20 21 22 22 21 21 22 23 23 24 24 24 25 26 25 26 25 25 25 25 24 23 24 23 23 24 23 23 23 23 22
19 20 21 21 22 22 22 23 23 22 22 22 20 21 22 22 22 22 22 22 23 23 24 24 25 25 26 27 26 27 27 27 27 26 25 24 25 25 25 25 25 25 25 24
19 20 20 20 22 23 23 23 24 24 24 23 21 22 23 23 23 23 23 23 24 24 24 24 25 26 26 26 27 27 28 28 28 27 26 26 26 26 25 25 26 26 26 26
21 21 20 19 21 23 23 24 24 24 24 23 23 23 24 24 24 24 24 24 24 24 24 24 24 24 25 25 26 27 28 28 28 26 27 27 27 27 27 26 26 26 25 25
21 21 21 21 22 23 23 23 24 24 23 23 23 25 24 24 25 25 25 24 24 23 23 23 24 24 24 25 26 26 26 27 27 27 28 28 28 28 27 27 26 26 26 25
20 21 21 22 22 23 24 23 23 23 23 24 25 25 24 24 24 24 24 24 25 24 24 24 25 26 25 26 26 26 26 26 25 26 27 27 28 28 27 27 26 27 27 27
20 21 21 22 22 23 24 23 22 24 25 25 25 25 25 24 24 24 24 25 25 25 26 26 25 26 26 27 27 27 27 26 26 26 27 27 27 27 27 27 28 27 26 26
20 20 21 22 23 23 24 22 23 25 25 26 26 25 25 25 24 25 26 26 26 25 26 26 26 26 26 27 27 27 27 26 26 26 26 26 27 27 27 27 27 26 26 25
20 20 21 21 22 23 23 22 22 24 25 25 25 25 25 25 25 26 26 26 26 26 26 26 26 26 26 27 27 27 27 27 26 25 25 25 26 26 26 27 26 26 25 25
20 20 21 21 21 22 22 21 22 23 23 23 24 24 25 25 26 26 26 26 26 26 26 26 26 26 27 27 27 27 27 26 26 25 26 25 25 25 25 25 25 25 25 25
20 20 21 21 22 22 21 21 21 22 22 22 23 24 24 24 25 26 27 28 28 27 27 27 27 27 27 28 28 27 27 27 26 26 25 25 24 25 25 25 24 25 25 25
20 20 21 21 21 23 23 23 23 23 23 22 23 23 24 24 25 26 26 26 26 27 26 27 27 28 28 28 28 28 27 27 27 26 26 25 24 24 24 24 24 24 25 25
19 20 20 21 21 22 23 23 23 23 23 23 23 23 23 24 25 25 25 25 25 26 26 26 26 26 27 28 27 27 27 27 26 25 26 26 26 25 25 24 24 25 25 25
17 18 18 19 20 21 22 23 22 23 24 24 24 24 24 23 24 24 25 26 26 26 26 26 26 26 26 25 25 25 25 26 25 25 25 26 26 25 25 26 26 26 25 26
18 18 19 19 20 21 21 22 22 23 23 23 23 24 24 24 24 24 25 25 26 25 25 26 26 25 25 25 25 25 25 26 26 26 25 25 26 26 26 26 25 25 26 25
19 19 19 20 20 20 20 22 22 22 22 22 22 22 23 23 24 24 25 25 26 26 25 25 25 26 26 26 25 25 25 24 25 25 25 26 26 26 26 26 25 25 25 25
Wind_Direction
240 238 237 235 236 236 238 238 241 245 250 251 253 256 259 262 263 264 266 269 269 271 275 277 280 279 276 278 280 280 278 274 276 275 276 280 282 286 291 286 288 292 293 300
239 237 238 238 237 238 240 240 243 248 249 250 252 255 258 261 263 264 265 266 267 268 271 274 277 275 274 273 276 275 272 270 272 271 270 276 279 279 284 284 282 283 286 293
236 238 239 239 240 240 242 241 243 248 250 252 254 257 260 261 262 262 262 263 266 267 269 270 272 273 274 274 272 270 269 271 270 270 274 275 275 274 277 279 278 277 277 282
236 238 239 240 240 239 242 244 245 248 251 253 255 257 261 261 259 260 262 264 266 265 265 265 267 271 271 272 270 265 264 270 270 269 272 273 274 275 274 274 273 275 273 272
239 239 239 239 240 241 243 246 248 250 252 254 257 254 261 262 259 261 264 265 262 262 261 262 264 268 269 267 267 270 265 269 270 272 273 273 273 274 274 274 276 273 273 271
240 241 240 241 243 244 247 250 252 254 254 254 254 254 257 261 261 260 262 260 260 260 261 263 265 266 266 264 265 269 266 266 269 271 273 274 272 273 274 275 275 275 273 273
244 245 244 244 246 248 248 251 252 251 250 253 256 256 256 261 260 259 260 257 259 261 262 263 265 266 266 265 264 266 265 266 268 271 271 274 275 272 272 275 276 277 276 270
245 248 249 248 246 249 249 247 245 247 250 256 261 258 260 264 262 259 260 260 259 260 260 260 262 263 264 264 263 264 267 267 268 270 271 272 274 272 271 275 277 277 278 272
245 248 252 252 249 247 249 247 246 251 254 259 264 265 264 265 264 261 262 262 262 261 260 260 261 260 261 263 265 265 264 266 269 270 274 274 273 270 269 273 275 276 277 274
247 251 253 255 252 250 249 249 248 249 254 259 266 270 268 266 266 267 266 265 264 264 262 260 260 259 259 261 264 266 266 267 267 270 271 271 271 268 268 269 272 274 275 274
250 252 254 255 254 253 251 249 250 252 253 258 264 267 268 267 267 267 268 267 266 266 264 261 260 259 258 260 262 266 265 264 264 267 269 270 270 269 269 268 270 271 272 271
251 252 253 255 256 255 253 251 252 255 259 259 261 266 269 267 267 267 267 267 268 268 266 262 260 259 259 260 262 262 265 265 265 266 269 269 271 271 270 270 270 270 269 268
253 254 256 259 262 257 254 254 254 256 259 261 262 265 269 269 269 269 267 268 269 269 268 264 261 260 260 260 261 262 265 266 269 268 268 270 272 271 273 273 272 270 269 267
255 254 252 253 255 259 258 257 257 257 259 262 264 265 266 267 267 267 266 267 268 268 267 265 262 259 260 261 260 262 264 266 270 270 272 272 272 272 273 273 273 272 270 269
255 255 256 257 258 259 259 259 258 257 257 259 262 264 266 266 266 265 264 264 264 265 265 264 262 260 260 261 261 264 266 268 270 271 273 273 273 274 273 273 271 270 270 270
255 257 260 262 261 261 260 259 259 259 259 261 261 263 265 265 265 264 264 264 263 263 263 263 262 262 261 262 263 264 266 269 268 269 270 270 272 274 273 272 272 271 271 270
258 260 261 261 263 262 260 259 260 261 260 261 261 262 264 264 263 263 263 264 264 264 265 261 259 262 264 265 266 267 268 269 269 269 268 269 271 272 274 273 272 270 270 270
262 263 263 262 262 262 263 262 262 264 262 262 262 262 263 264 265 265 264 265 266 266 266 264 260 262 264 264 265 267 269 270 270 269 270 272 272 272 272 271 269 267 268 269
263 265 264 263 262 262 263 263 262 264 264 263 262 263 264 263 264 266 267 267 268 267 267 266 262 262 263 264 266 267 269 269 269 268 269 272 273 272 272 271 268 267 268 269
265 266 265 263 260 263 267 265 263 264 266 264 263 264 263 262 263 265 267 268 268 266 265 266 264 263 263 264 266 267 267 267 266 266 268 270 272 271 271 269 267 269 270 269
264 265 264 262 264 266 268 268 267 267 268 267 265 264 263 264 264 265 267 269 268 266 264 263 264 264 264 263 264 266 267 265 264 266 267 269 271 270 269 267 267 269 270 269
264 264 264 264 265 267 270 270 269 270 269 267 266 266 266 266 266 266 267 268 267 268 267 265 265 265 263 263 264 265 267 266 265 265 266 268 268 267 266 266 268 269 269 268
265 263 263 263 266 268 270 270 270 270 270 269 269 268 267 268 266 266 266 267 267 267 268 268 266 265 263 262 263 264 265 264 263 264 264 265 265 264 265 266 268 269 269 268
269 266 265 266 267 270 272 272 270 270 271 271 269 269 268 268 268 266 267 268 268 269 268 268 267 264 264 264 261 263 261 261 261 262 261 262 264 262 263 265 267 268 268 269
270 271 272 272 271 271 273 274 271 271 271 271 271 270 269 268 268 269 269 267 267 269 266 266 264 262 262 263 262 262 260 259 261 262 260 259 261 264 265 266 266 265 265 267
272 274 274 274 275 275 275 275 274 272 272 270 270 270 271 272 270 270 270 270 268 268 267 265 263 262 260 260 259 260 260 259 261 262 261 260 263 265 265 264 265 266 267 268
Height
5862 5865 5867 5869 5871 5873 5875 5877 5879 5880 5880 5882 5883 5884 5885 5885 5886 5886 5887 5887 5886 5886 5885 5884 5884 5883 5882 5882 5881 5881 5880 5879 5878 5878 5877 5877 5876 5876 5875 5874 5874 5873 5872 5871
5859 5861 5863 5864 5866 5868 5870 5873 5874 5875 5876 5877 5879 5880 5881 5881 5882 5883 5883 5883 5883 5883 5882 5882 5881 5880 5880 5879 5879 5878 5877 5877 5876 5876 5875 5875 5875 5874 5873 5872 5872 5871 5870 5869
5856 5858 5858 5860 5862 5864 5866 5869 5870 5871 5871 5873 5875 5876 5877 5877 5878 5879 5879 5879 5879 5879 5879 5878 5878 5878 5877 5876 5875 5875 5875 5874 5874 5873 5872 5872 5872 5871 5871 5870 5869 5869 5868 5868
5851 5853 5854 5856 5858 5860 5862 5864 5865 5866 5868 5869 5871 5873 5873 5873 5873 5874 5875 5875 5875 5875 5875 5875 5874 5874 5874 5873 5872 5872 5871 5871 5871 5871 5870 5870 5869 5869 5868 5867 5867 5866 5866 5865
5848 5849 5851 5853 5854 5856 5858 5859 5861 5862 5863 5865 5866 5868 5869 5868 5868 5870 5870 5870 5870 5870 5870 5870 5870 5870 5870 5869 5869 5869 5868 5868 5868 5868 5867 5867 5866 5866 5865 5864 5864 5864 5864 5863
5843 5845 5847 5848 5850 5851 5853 5855 5856 5857 5859 5861 5862 5864 5865 5863 5864 5865 5865 5865 5865 5865 5866 5866 5866 5866 5866 5865 5865 5865 5865 5865 5865 5865 5864 5864 5863 5862 5861 5861 5861 5860 5860 5860
5839 5841 5842 5844 5846 5847 5849 5852 5854 5855 5856 5857 5857 5857 5859 5858 5859 5860 5860 5860 5860 5861 5861 5861 5861 5861 5861 5860 5861 5861 5861 5861 5861 5861 5861 5860 5859 5859 5858 5858 5857 5857 5856 5856
5836 5838 5838 5839 5841 5843 5844 5847 5851 5852 5854 5854 5851 5852 5853 5852 5853 5854 5855 5855 5855 5855 5856 5856 5856 5856 5856 5856 5856 5856 5857 5857 5857 5856 5856 5856 5855 5855 5854 5853 5853 5853 5852 5852
5832 5833 5833 5834 5836 5838 5839 5841 5844 5846 5847 5848 5847 5846 5847 5847 5847 5848 5848 5849 5849 5850 5850 5850 5850 5850 5850 5850 5850 5851 5851 5852 5852 5851 5851 5851 5850 5850 5850 5849 5849 5848 5848 5847
5826 5828 5828 5829 5831 5832 5834 5836 5838 5840 5841 5842 5843 5842 5842 5841 5841 5842 5842 5842 5843 5843 5843 5844 5844 5844 5844 5844 5844 5845 5845 5846 5846 5846 5846 5845 5845 5845 5845 5844 5844 5844 5843 5843
5820 5822 5823 5824 5825 5827 5828 5830 5831 5833 5835 5837 5838 5839 5835 5835 5835 5836 5836 5836 5836 5837 5837 5837 5837 5837 5837 5838 5838 5839 5839 5839 5839 5839 5839 5839 5839 5839 5839 5838 5838 5838 5837 5837
5815 5817 5817 5819 5819 5820 5822 5823 5825 5828 5828 5828 5831 5833 5829 5829 5829 5829 5829 5829 5829 5830 5830 5830 5830 5830 5830 5831 5832 5832 5832 5832 5832 5832 5832 5832 5832 5831 5832 5832 5832 5831 5831 5831
5809 5811 5812 5813 5815 5814 5815 5816 5818 5820 5821 5822 5824 5826 5822 5822 5822 5822 5822 5822 5822 5822 5822 5822 5822 5823 5823 5824 5824 5824 5825 5825 5824 5824 5824 5824 5824 5824 5824 5824 5824 5824 5824 5824
5803 5805 5807 5809 5808 5808 5808 5809 5811 5812 5814 5815 5816 5817 5815 5815 5815 5815 5815 5815 5815 5815 5815 5815 5815 5815 5816 5816 5817 5817 5817 5817 5817 5817 5817 5817 5817 5817 5817 5817 5817 5817 5817 5817
5797 5798 5799 5800 5801 5801 5802 5802 5803 5805 5806 5808 5808 5807 5808 5807 5808 5808 5808 5808 5808 5808 5808 5808 5808 5808 5809 5809 5809 5809 5810 5810 5810 5810 5809 5810 5810 5810 5810 5810 5810 5810 5810 5809
5791 5793 5793 5794 5794 5794 5795 5795 5796 5797 5798 5799 5800 5800 5800 5800 5800 5800 5800 5801 5801 5801 5801 5801 5801 5801 5801 5802 5802 5802 5802 5802 5802 5803 5802 5802 5802 5802 5802 5802 5802 5802 5802 5801
5785 5786 5787 5787 5787 5787 5788 5789 5790 5790 5791 5792 5792 5793 5793 5793 5793 5793 5793 5793 5793 5794 5793 5793 5794 5794 5794 5794 5794 5794 5795 5795 5795 5795 5795 5795 5795 5794 5794 5794 5794 5794 5794 5794
5779 5780 5780 5780 5781 5781 5783 5783 5783 5783 5783 5783 5784 5785 5785 5785 5786 5786 5786 5786 5786 5786 5785 5785 5785 5786 5786 5786 5786 5787 5787 5787 5787 5787 5787 5787 5787 5786 5786 5786 5786 5786 5786 5786
5773 5773 5774 5774 5774 5774 5775 5775 5775 5775 5775 5776 5776 5777 5777 5778 5778 5778 5778 5778 5778 5777 5777 5777 5777 5778 5779 5779 5779 5779 5779 5779 5779 5779 5779 5779 5779 5779 5779 5778 5778 5778 5778 5777
5767 5767 5768 5768 5768 5768 5769 5768 5768 5769 5768 5769 5769 5769 5770 5770 5771 5771 5770 5770 5770 5770 5769 5769 5769 5770 5771 5771 5771 5772 5771 5772 5772 5772 5772 5772 5771 5771 5771 5770 5770 5770 5770 5769
5760 5760 5761 5761 5761 5761 5761 5761 5762 5763 5763 5762 5762 5762 5762 5762 5763 5763 5762 5762 5762 5761 5761 5761 5761 5762 5762 5763 5763 5764 5763 5764 5764 5764 5764 5764 5764 5763 5763 5763 5762 5762 5762 5762
5754 5754 5754 5754 5754 5756 5754 5754 5755 5755 5754 5754 5754 5754 5754 5755 5754 5754 5754 5754 5754 5753 5753 5753 5753 5754 5754 5754 5755 5755 5755 5755 5756 5756 5756 5756 5756 5756 5755 5755 5755 5755 5754 5754
5747 5748 5747 5748 5749 5747 5746 5746 5746 5746 5746 5746 5746 5747 5747 5746 5746 5746 5746 5746 5746 5745 5745 5745 5745 5745 5745 5745 5746 5746 5746 5747 5747 5747 5748 5748 5748 5748 5748 5748 5748 5747 5747 5747
5741 5740 5740 5740 5740 5739 5739 5738 5738 5739 5739 5739 5739 5739 5739 5738 5738 5738 5738 5738 5738 5737 5737 5737 5737 5737 5737 5737 5737 5738 5738 5738 5739 5739 5739 5740 5740 5740 5741 5740 5740 5740 5740 5739
5735 5734 5734 5733 5733 5732 5731 5731 5731 5731 5731 5731 5731 5731 5731 5731 5731 5730 5730 5730 5729 5729 5729 5729 5729 5729 5729 5729 5729 5730 5730 5730 5730 5731 5731 5732 5733 5733 5733 5732 5732 5733 5732 5732
5728 5728 5728 5727 5726 5725 5725 5724 5724 5724 5724 5724 5724 5723 5723 5723 5723 5722 5722 5722 5721 5721 5721 5721 5721 5721 5721 5721 5722 5722 5722 5722 5722 5723 5723 5724 5725 5725 5725 5725 5724 5724 5724 5724